Weather History for KHIE - July, 2014

Change the Weather History Date:

Monday, July 14, 2014

  Actual Average Record
Temperature  
Mean Temperature 70 °F -  
Max Temperature 82 °F 75 °F 90 °F (2012)
Min Temperature 60 °F 48 °F 42 °F (1999)
Cooling Degree Days 4    
Growing Degree Days 20 (Base 50)    
Moisture  
Dew Point 64 °F    
Average Humidity 85    
Maximum Humidity 97    
Minimum Humidity 54    
Precipitation  
Precipitation 0.08 in - - ()
Sea Level Pressure  
Sea Level Pressure 29.87 in    
Wind  
Wind Speed 3 mph (West)    
Max Wind Speed 12 mph    
Max Gust Speed 26 mph    
Visibility 7 miles    
Events Fog , Rain , Thunderstorm    
Averages and records for this station are not official NWS values.
T = Trace of Precipitation, MM = Missing Value Source: NWS Daily Summary

Daily Weather History Graph

Daily Weather History Graph

Search for Another Location

Airport or City:

Trip Planner

Search our weather history database for the weather conditions in past years. The results will help you decide how hot, cold, wet, or windy it might be!

Date:

Astronomy

Jul. 14, 2014 Rise Set
Actual Time 5:15 AM EDT 8:28 PM EDT
Civil Twilight 4:39 AM EDT 9:03 PM EDT
Nautical Twilight 3:53 AM EDT 9:49 PM EDT
Astronomical Twilight 2:57 AM EDT 10:45 PM EDT
Moon 9:47 PM EDT (7/14) 8:01 AM EDT (7/14)
Length of Visible Light 16h 24m
Length of Day
15h 13m
Waning Gibbous, 93% of the Moon is Illuminated
Jul 14
Waning Gibbous
Jul 18
Last Quarter
Jul 26
New
Aug 3
First Quarter
Aug 10
Full

Hourly Weather History & Observations

Time (EDT) Temp. Dew Point Humidity Pressure Visibility Wind Dir Wind Speed Gust Speed Precip Events Conditions
12:03 AM 70.0 °F 68.0 °F 93% 29.82 in 7.0 mi Calm Calm - N/A   Overcast
12:52 AM 72.0 °F 66.9 °F 84% 29.80 in 10.0 mi SW 3.5 mph - N/A   Overcast
1:12 AM 73.0 °F 66.9 °F 81% 29.82 in 10.0 mi SW 8.1 mph - 0.00 in Rain , Thunderstorm Light Rain
1:20 AM 69.1 °F 64.9 °F 87% 29.86 in 1.8 mi West 11.5 mph 26.5 mph 0.11 in Rain , Thunderstorm Heavy Rain
1:29 AM 66.9 °F 63.0 °F 87% 29.85 in 2.0 mi WNW 4.6 mph 18.4 mph 0.15 in Rain Rain
1:31 AM 66.9 °F 63.0 °F 87% 29.85 in 3.0 mi Calm Calm - 0.15 in Rain Rain
2:12 AM 66.9 °F 64.0 °F 90% 29.86 in 10.0 mi Variable 3.5 mph - N/A   Overcast
2:31 AM 66.0 °F 64.0 °F 93% 29.86 in 10.0 mi SW 3.5 mph - N/A   Overcast
2:52 AM 66.0 °F 64.0 °F 93% 29.85 in 10.0 mi Calm Calm - N/A   Scattered Clouds
3:39 AM 64.9 °F 63.0 °F 93% 29.86 in 2.5 mi West 4.6 mph - N/A   Clear
3:52 AM 66.0 °F 64.0 °F 93% 29.85 in 9.0 mi WSW 3.5 mph - N/A   Clear
4:52 AM 63.0 °F 61.0 °F 93% 29.87 in 1.8 mi Calm Calm - N/A   Clear
4:54 AM 63.0 °F 62.1 °F 97% 29.87 in 1.0 mi West 3.5 mph - N/A   Mist
5:02 AM 63.0 °F 61.0 °F 93% 29.87 in 0.5 mi Calm Calm - N/A Fog Fog
5:52 AM 60.1 °F 59.0 °F 96% 29.88 in 0.2 mi Calm Calm - N/A Fog Fog
6:52 AM 63.0 °F 61.0 °F 93% 29.89 in 0.2 mi Calm Calm - N/A Fog Fog
7:28 AM 66.0 °F 64.0 °F 93% 29.90 in 1.2 mi Calm Calm - N/A   Mostly Cloudy
7:43 AM 66.9 °F 64.9 °F 93% 29.90 in 2.0 mi Calm Calm - N/A   Mostly Cloudy
7:52 AM 66.9 °F 64.9 °F 93% 29.90 in 6.0 mi Calm Calm - N/A   Mostly Cloudy
8:02 AM 68.0 °F 66.0 °F 93% 29.91 in 10.0 mi Calm Calm - N/A   Scattered Clouds
8:52 AM 72.0 °F 66.9 °F 84% 29.90 in 10.0 mi WNW 4.6 mph - N/A   Partly Cloudy
9:52 AM 75.0 °F 59.0 °F 57% 29.90 in 10.0 mi WSW 5.8 mph - N/A   Clear
10:52 AM 77.0 °F 61.0 °F 58% 29.90 in 10.0 mi Calm Calm - N/A   Scattered Clouds
11:52 AM 78.1 °F 61.0 °F 56% 29.90 in 10.0 mi Variable 4.6 mph - N/A   Scattered Clouds
12:52 PM 75.9 °F 62.1 °F 62% 29.89 in 10.0 mi WNW 5.8 mph - N/A   Overcast
1:52 PM 79.0 °F 61.0 °F 54% 29.88 in 10.0 mi West 4.6 mph - N/A   Mostly Cloudy
3:52 PM 77.0 °F 63.0 °F 62% 29.86 in 7.0 mi WNW 8.1 mph - 0.00 in Rain Light Rain
4:52 PM 70.0 °F 64.9 °F 84% 29.89 in 8.0 mi Calm Calm - 0.05 in Rain Light Rain
5:52 PM 68.0 °F 64.0 °F 87% 29.88 in 10.0 mi East 6.9 mph - 0.03 in   Overcast
6:52 PM 69.1 °F 64.9 °F 87% 29.88 in 10.0 mi Calm Calm - N/A   Scattered Clouds
7:52 PM 68.0 °F 64.9 °F 90% 29.87 in 10.0 mi Calm Calm - N/A   Scattered Clouds
8:52 PM 66.9 °F 64.9 °F 93% 29.87 in 7.0 mi West 3.5 mph - N/A   Scattered Clouds
9:52 PM 66.9 °F 64.0 °F 90% 29.88 in 8.0 mi Calm Calm - N/A   Mostly Cloudy
10:52 PM 64.9 °F 64.0 °F 97% 29.88 in 6.0 mi Calm Calm - N/A   Scattered Clouds
11:52 PM 64.9 °F 63.0 °F 93% 29.87 in 6.0 mi Calm Calm - N/A   Mostly Cloudy